Location: Gniazdowice
(50.2124°N, 20.2673°E)
Time: 12:56:39
(UTC+00:00)

Meteor 1-28 Rocket - Pass Details

Date: 12 August 2024
Orbit: 467 x 482 km, 97.5° (Epoch: 15 September)

Event Time Altitude Azimuth Distance (km) Brightness Sun altitude
Exits shadow 23:51:40 - 105° (ESE) 2,103 6.3 -23.5°
Reaches altitude 10° 23:53:21 10° 86° (E) 1,677 6.0 -23.4°
Maximum altitude 23:54:56 13° 60° (ENE) 1,524 6.2 -23.4°
Drops below altitude 10° 23:56:31 10° 33° (NNE) 1,679 6.8 -23.3°
Sets 23:59:34 0° 4° (N) 2,560 8.0 -23.1°
